Location: Rodson Ranch
(38.7188°N, 119.3202°W)
Time: 17:25:40
(UTC+00:00)

Aureole 3 - Pass Details

Date: 29 October 2020
Orbit: 382 x 1232 km, 82.5° (Epoch: 22 November)

Event Time Altitude Azimuth Distance (km) Brightness Sun altitude
Rises 12:49:21 0° 354° (N) 2,834 6.9 -18.5°
Reaches altitude 10° 12:51:20 10° 356° (N) 2,037 6.1 -18.1°
Maximum altitude 12:55:54 77° 83° (E) 780 4.1 -17.2°
Drops below altitude 10° 13:01:43 10° 170° (S) 2,586 6.9 -16.1°
Sets 13:04:29 0° 171° (S) 3,662 7.7 -15.6°
